COSMOS 2251 DEB, 34303

Orbit data source: Space-Track

COSMOS 2251 DEB, 34303 is space debris in LEO originally from a launch on Wed, 16 Jun 1993 UTC launched from the Plesetsk Missile And Space Complex (PKMTR). The debris from Iridium 33, an American commercial communications satellite, has been tracked extensively since its accidental collision with the defunct Russian satellite Cosmos 2251 in 2009. This event, occurring at high speed in low Earth orbit (LEO), generated thousands of pieces of space debris, significantly increasing the risk of further collisions. The Iridium 33 debris cloud has impacted space traffic management and orbital debris mitigation strategies, making it a subject of ongoing study in space situational awareness.

Loading next visibility...
Identifier
34303, 1993-036MZ
Orbit
LEO
Country
Flag of CISCIS
Related business
Manufacturer
Unknown
Mission
Spacecraft
Bus & Motor
Unknown
Mass
Unknown
Launch date (UTC)
1993-06-16 (33 years ago)
Launch vehicle
Unknown
Launch site
Plesetsk Missile And Space Complex (PKMTR)
Object type
Payload
Rocket body
Debris
Shape & HBR
Unknown shape, 0.1 m
Radar Cross Section
Small (<0.1 m²)

Expand to show TLE details & history
Last TLE update: 13 hours ago

TLE from 13 hours ago
0 COSMOS 2251 DEB
1 34303U 93036MZ  26104.31398919  .00002146  00000-0  43715-3 0  9996
2 34303  74.0043  55.3712 0135827 165.3500 354.3124 14.55962599897452
Epoch: 2026-04-14T07:32Z
TLE epoch observation values (Epoch: 2026-04-14T07:32:08.666Z)
Latitude
19.67638°
Longitude
-86.0083°
Altitude
612.674 km
Speed
7.606 km/s
True Right ascension
15h 18m 04s
True Declination
19° 33' 55"
Sunlit
Object was in full shadow at epoch
Visualization orbit readout
Latitude
Unknown
Longitude
Unknown
Altitude
Unknown
Speed
Unknown
Apparent Right ascension
Unknown
Apparent Declination
Unknown
Sunlit
N/A
Visualization observer readout
Local Sidereal Time
03:32:42
Azimuth
Unknown
Elevation
Unknown
Doppler factor
Unknown
Orbital elements
Apogee altitude
800.037 km
Perigee altitude
607.652 km
Semi-major axis
7,081.982 km
Eccentricity
0.01358
Inclination
74.0043°
RAAN
55.3712°
Arg. of periapsis
165.35°
True anomaly
354.1555°
Mean anomaly
354.3124°
Eccentric anomaly
354.23422°
Mean motion
3.64176 °/min
Orbital period
98.85 mins
BSTAR
0.00043715

Documentation

Showing up to 5 results
|